WHSE22 YBTL-YLVK

Flight info

Callsign WHSE22
Flight time 0h -7m
Altitude 3000
Route YBTL DCT YBEG DCT YLVK
Aircraft H47/M-SDFBRW/L1

Departure

Time 2026-05-05 02:12
Airport Townsville Airport / RAAF Base Townsville (YBTL)

Arrival

Time 2026-05-05 02:05
Airport Lavarack (Military) Airport (YLVK)
Time Latitude Longitude Altitude Speed Heading
2026-05-05 02:05 -19.25807 146.75958 15 ft 0 kts 95°
2026-05-05 02:06 -19.25810 146.75986 15 ft 6 kts 94°
2026-05-05 02:06 -19.25791 146.76002 16 ft 3 kts 353°
2026-05-05 02:07 -19.25769 146.76002 17 ft 0 kts
2026-05-05 02:07 -19.25767 146.76002 17 ft 1 kts
2026-05-05 02:07 -19.25754 146.76005 15 ft 3 kts
2026-05-05 02:08 -19.25719 146.76011 15 ft 7 kts
2026-05-05 02:08 -19.25689 146.75976 15 ft 9 kts 276°
2026-05-05 02:08 -19.25679 146.75903 15 ft 11 kts 277°
2026-05-05 02:08 -19.25672 146.75812 15 ft 14 kts 273°
2026-05-05 02:09 -19.25659 146.75695 15 ft 17 kts 279°
2026-05-05 02:09 -19.25649 146.75625 15 ft 1 kts 278°
2026-05-05 02:09 -19.25633 146.75583 41 ft 13 kts 322°
2026-05-05 02:09 -19.25617 146.75571 12 ft 0 kts 328°
2026-05-05 02:10 -19.25608 146.75567 16 ft 4 kts 339°
2026-05-05 02:10 -19.25572 146.75571 16 ft 6 kts 75°
2026-05-05 02:11 -19.25559 146.75629 16 ft 10 kts 73°
2026-05-05 02:11 -19.25536 146.75736 32 ft 23 kts 77°
2026-05-05 02:11 -19.25486 146.75930 120 ft 29 kts 156°
2026-05-05 02:11 -19.25580 146.76053 174 ft 34 kts 199°
2026-05-05 02:12 -19.25956 146.75828 450 ft 93 kts 215°
2026-05-05 02:12 -19.27347 146.74617 761 ft 139 kts 220°
2026-05-05 02:12 -19.28081 146.73963 1129 ft 140 kts 220°
2026-05-05 02:13 -19.28845 146.73222 1117 ft 160 kts 224°
2026-05-05 02:13 -19.29606 146.72331 988 ft 167 kts 229°
2026-05-05 02:13 -19.30339 146.71359 931 ft 166 kts 232°
2026-05-05 02:13 -19.31018 146.70394 930 ft 165 kts 233°
2026-05-05 02:14 -19.31696 146.69398 839 ft 166 kts 233°
2026-05-05 02:14 -19.32411 146.68468 863 ft 162 kts 229°
2026-05-05 02:14 -19.33167 146.67564 849 ft 163 kts 227°
2026-05-05 02:14 -19.33942 146.66689 819 ft 164 kts 225°
2026-05-05 02:15 -19.34729 146.65816 741 ft 166 kts 226°
2026-05-05 02:15 -19.35476 146.64906 693 ft 164 kts 232°
2026-05-05 02:15 -19.36092 146.63887 730 ft 163 kts 239°
2026-05-05 02:15 -19.36647 146.62859 838 ft 160 kts 239°
2026-05-05 02:16 -19.37230 146.61865 1011 ft 155 kts 236°
2026-05-05 02:16 -19.37856 146.60964 1157 ft 154 kts 231°
2026-05-05 02:16 -19.38621 146.60135 1231 ft 159 kts 221°
2026-05-05 02:16 -19.39505 146.59427 1222 ft 162 kts 214°
2026-05-05 02:17 -19.40472 146.58768 1102 ft 164 kts 212°
2026-05-05 02:17 -19.41317 146.58033 1246 ft 152 kts 225°
2026-05-05 02:17 -19.41879 146.57148 1747 ft 135 kts 238°
2026-05-05 02:17 -19.42279 146.56264 2309 ft 140 kts 242°
2026-05-05 02:18 -19.42786 146.55255 2178 ft 167 kts 238°
2026-05-05 02:18 -19.43432 146.54256 2107 ft 158 kts 233°
2026-05-05 02:18 -19.44142 146.53363 2208 ft 161 kts 226°
2026-05-05 02:18 -19.44974 146.52557 2141 ft 164 kts 221°
2026-05-05 02:19 -19.45831 146.51790 2224 ft 159 kts 219°
2026-05-05 02:19 -19.46658 146.51000 2217 ft 164 kts 221°
2026-05-05 02:19 -19.47458 146.50159 2239 ft 160 kts 223°
2026-05-05 02:19 -19.48229 146.49298 2261 ft 161 kts 225°
2026-05-05 02:20 -19.48985 146.48428 2276 ft 161 kts 226°
2026-05-05 02:20 -19.49746 146.47547 2251 ft 165 kts 225°
2026-05-05 02:20 -19.50523 146.46605 1987 ft 170 kts 229°
2026-05-05 02:20 -19.51281 146.45682 2006 ft 160 kts 228°
2026-05-05 02:21 -19.52027 146.44834 2099 ft 161 kts 226°
2026-05-05 02:21 -19.52777 146.43915 2027 ft 163 kts 229°
2026-05-05 02:21 -19.53506 146.43017 2129 ft 157 kts 229°
2026-05-05 02:21 -19.54192 146.42099 2141 ft 164 kts 231°
2026-05-05 02:22 -19.54870 146.41098 2102 ft 168 kts 233°
2026-05-05 02:22 -19.55495 146.40071 2027 ft 163 kts 236°
2026-05-05 02:22 -19.56110 146.39102 2173 ft 154 kts 235°
2026-05-05 02:22 -19.56786 146.38215 2218 ft 158 kts 227°
2026-05-05 02:23 -19.57309 146.37658 2162 ft 162 kts 224°
2026-05-05 02:23 -19.58096 146.36794 2091 ft 160 kts 228°
2026-05-05 02:23 -19.59011 146.35601 1839 ft 158 kts 227°
2026-05-05 02:23 -19.59549 146.35076 1649 ft 154 kts 218°
2026-05-05 02:24 -19.60370 146.34435 1635 ft 140 kts 211°
2026-05-05 02:24 -19.61165 146.33852 1615 ft 141 kts 211°
2026-05-05 02:24 -19.61962 146.33250 1577 ft 142 kts 212°
2026-05-05 02:24 -19.62758 146.32596 1473 ft 143 kts 214°
2026-05-05 02:25 -19.63491 146.31957 1513 ft 132 kts 216°
2026-05-05 02:25 -19.64149 146.31378 1504 ft 111 kts 211°
2026-05-05 02:25 -19.64709 146.30936 1365 ft 92 kts 219°
2026-05-05 02:25 -19.65073 146.30267 1202 ft 60 kts 246°
2026-05-05 02:26 -19.65127 146.30049 1080 ft 29 kts 251°
2026-05-05 02:26 -19.65146 146.29999 1023 ft 3 kts 263°
2026-05-05 02:26 -19.65145 146.29998 1021 ft 0 kts 261°
2026-05-05 02:26 -19.65143 146.29991 1022 ft 2 kts
2026-05-05 02:27 -19.65135 146.30001 1022 ft 2 kts 75°
2026-05-05 02:27 -19.65131 146.30025 1023 ft 4 kts 80°
2026-05-05 02:27 -19.65119 146.30063 1023 ft 7 kts 35°
2026-05-05 02:27 -19.65075 146.30057 1022 ft 8 kts 341°
2026-05-05 02:28 -19.65056 146.30050 1022 ft 0 kts 343°
2026-05-05 02:40 -19.65052 146.30049 1026 ft 2 kts 345°
2026-05-05 02:41 -19.65059 146.30038 1036 ft 5 kts 359°
2026-05-05 02:41 -19.65055 146.30021 1036 ft 1 kts 14°
2026-05-05 02:41 -19.65057 146.30021 1042 ft 2 kts 26°
2026-05-05 02:41 -19.65057 146.30023 1041 ft 2 kts 343°
2026-05-05 02:42 -19.65056 146.30022 1038 ft 0 kts 332°
2026-05-05 02:42 -19.65052 146.30017 1038 ft 1 kts 322°
2026-05-05 02:42 -19.65054 146.30019 1040 ft 1 kts 334°
2026-05-05 02:42 -19.65054 146.30023 1042 ft 2 kts 333°
2026-05-05 02:43 -19.65046 146.30027 1055 ft 5 kts 333°
2026-05-05 02:43 -19.64994 146.29983 1082 ft 13 kts 336°
2026-05-05 02:43 -19.64894 146.29992 1117 ft 24 kts 343°
2026-05-05 02:43 -19.64685 146.30032 1248 ft 48 kts 24°
2026-05-05 02:44 -19.64201 146.30129 1469 ft 90 kts 22°
2026-05-05 02:44 -19.63518 146.30342 1833 ft 110 kts 26°
2026-05-05 02:44 -19.62798 146.30664 2144 ft 115 kts 32°
2026-05-05 02:44 -19.62160 146.31148 2365 ft 113 kts 48°
2026-05-05 02:45 -19.61663 146.31839 2463 ft 122 kts 64°
2026-05-05 02:45 -19.61263 146.32662 2445 ft 130 kts 71°
2026-05-05 02:45 -19.60905 146.33549 2407 ft 130 kts 73°
2026-05-05 02:45 -19.60626 146.34445 2432 ft 125 kts 78°
2026-05-05 02:46 -19.60442 146.35316 2489 ft 120 kts 84°
2026-05-05 02:46 -19.60346 146.36194 2457 ft 119 kts 89°
2026-05-05 02:46 -19.60311 146.37053 2512 ft 114 kts 91°
2026-05-05 02:46 -19.60348 146.37863 2682 ft 107 kts 96°
2026-05-05 02:47 -19.60290 146.38664 2687 ft 116 kts 83°
2026-05-05 02:47 -19.60028 146.39497 2500 ft 121 kts 69°
2026-05-05 02:47 -19.59587 146.40243 2335 ft 118 kts 57°
2026-05-05 02:47 -19.59112 146.40924 2219 ft 112 kts 58°
2026-05-05 02:48 -19.58668 146.41591 2186 ft 108 kts 60°
2026-05-05 02:48 -19.58254 146.42237 2219 ft 106 kts 60°
2026-05-05 02:48 -19.57848 146.42880 2278 ft 106 kts 59°
2026-05-05 02:48 -19.57441 146.43558 2333 ft 110 kts 63°
2026-05-05 02:49 -19.57047 146.44259 2395 ft 113 kts 65°
2026-05-05 02:49 -19.56647 146.45003 2419 ft 117 kts 66°
2026-05-05 02:49 -19.56238 146.45740 2470 ft 118 kts 64°
2026-05-05 02:49 -19.55789 146.46492 2495 ft 122 kts 63°
2026-05-05 02:50 -19.55339 146.47234 2590 ft 115 kts 60°
2026-05-05 02:50 -19.54899 146.47899 2865 ft 109 kts 62°
2026-05-05 02:50 -19.54454 146.48587 2861 ft 120 kts 61°
2026-05-05 02:50 -19.53964 146.49337 2723 ft 124 kts 59°
2026-05-05 02:51 -19.53482 146.50076 2682 ft 120 kts 59°
2026-05-05 02:51 -19.53009 146.50787 2682 ft 115 kts 58°
2026-05-05 02:51 -19.52534 146.51464 2720 ft 115 kts 56°
2026-05-05 02:51 -19.52024 146.52100 2760 ft 111 kts 54°
2026-05-05 02:52 -19.51536 146.52695 2825 ft 105 kts 56°
2026-05-05 02:52 -19.51080 146.53286 2956 ft 101 kts 56°
2026-05-05 02:52 -19.50623 146.53875 3057 ft 105 kts 57°
2026-05-05 02:52 -19.50141 146.54447 3144 ft 102 kts 55°
2026-05-05 02:53 -19.49765 146.55045 3321 ft 100 kts 67°
2026-05-05 02:53 -19.49437 146.55763 3249 ft 117 kts 69°
2026-05-05 02:53 -19.49057 146.56564 3037 ft 125 kts 68°
2026-05-05 02:53 -19.48667 146.57394 2906 ft 128 kts 67°
2026-05-05 02:54 -19.48294 146.58252 2921 ft 123 kts 71°
2026-05-05 02:54 -19.48021 146.59059 3022 ft 113 kts 75°
2026-05-05 02:54 -19.47777 146.59850 2995 ft 116 kts 76°
2026-05-05 02:54 -19.47540 146.60712 2919 ft 125 kts 78°
2026-05-05 02:55 -19.47297 146.61610 2751 ft 130 kts 76°
2026-05-05 02:55 -19.47031 146.62506 2631 ft 125 kts 76°
2026-05-05 02:55 -19.46755 146.63382 2575 ft 123 kts 74°
2026-05-05 02:55 -19.46458 146.64198 2661 ft 116 kts 72°
2026-05-05 02:56 -19.46176 146.64977 2852 ft 111 kts 75°
2026-05-05 02:56 -19.45911 146.65780 2843 ft 122 kts 76°
2026-05-05 02:56 -19.45630 146.66661 2483 ft 127 kts 75°
2026-05-05 02:56 -19.45339 146.67534 2243 ft 123 kts 74°
2026-05-05 02:57 -19.45070 146.68381 2040 ft 121 kts 76°
2026-05-05 02:57 -19.44823 146.69223 1934 ft 117 kts 77°
2026-05-05 02:57 -19.44584 146.70022 1910 ft 113 kts 76°
2026-05-05 02:57 -19.44369 146.70822 1894 ft 113 kts 78°
2026-05-05 02:58 -19.44182 146.71648 1887 ft 116 kts 80°
2026-05-05 02:58 -19.44042 146.72500 1813 ft 117 kts 85°
2026-05-05 02:58 -19.43973 146.73351 1862 ft 119 kts 89°
2026-05-05 02:58 -19.43951 146.74230 1944 ft 120 kts 92°
2026-05-05 02:59 -19.43930 146.75120 2019 ft 120 kts 92°
2026-05-05 02:59 -19.43888 146.76003 2035 ft 120 kts 90°
2026-05-05 02:59 -19.43842 146.76880 2116 ft 118 kts 89°
2026-05-05 02:59 -19.43766 146.77731 2216 ft 116 kts 87°
2026-05-05 03:00 -19.43616 146.78584 2319 ft 119 kts 80°
2026-05-05 03:00 -19.43293 146.79407 2370 ft 123 kts 66°
2026-05-05 03:00 -19.42819 146.80173 2426 ft 125 kts 58°
2026-05-05 03:00 -19.42257 146.80870 2492 ft 126 kts 52°
2026-05-05 03:01 -19.41590 146.81485 2503 ft 131 kts 40°
2026-05-05 03:01 -19.40732 146.81878 2473 ft 137 kts 21°
2026-05-05 03:01 -19.39784 146.82058 2423 ft 140 kts 11°
2026-05-05 03:01 -19.38811 146.82117 2436 ft 137 kts
2026-05-05 03:02 -19.37878 146.82125 2537 ft 133 kts
2026-05-05 03:02 -19.36972 146.82122 2644 ft 129 kts
2026-05-05 03:02 -19.36090 146.82088 2614 ft 127 kts
2026-05-05 03:02 -19.35192 146.82062 2597 ft 132 kts
2026-05-05 03:03 -19.34266 146.81979 2450 ft 132 kts 356°
2026-05-05 03:03 -19.33396 146.81858 2440 ft 122 kts 353°
2026-05-05 03:03 -19.32643 146.81612 2275 ft 110 kts 335°
2026-05-05 03:03 -19.32083 146.81079 2036 ft 100 kts 309°
2026-05-05 03:04 -19.31817 146.80546 1906 ft 65 kts 292°
2026-05-05 03:04 -19.31763 146.80203 1573 ft 27 kts 281°
2026-05-05 03:04 -19.31779 146.80114 1062 ft 15 kts 276°
2026-05-05 03:04 -19.31790 146.79896 850 ft 32 kts 269°
2026-05-05 03:05 -19.31782 146.79686 629 ft 28 kts 264°
2026-05-05 03:05 -19.31794 146.79510 424 ft 20 kts 260°
2026-05-05 03:05 -19.31847 146.79423 252 ft 5 kts 260°
2026-05-05 03:05 -19.31837 146.79388 191 ft 9 kts 262°
2026-05-05 03:06 -19.31872 146.79374 128 ft 3 kts 266°
2026-05-05 03:06 -19.31887 146.79361 88 ft 2 kts 271°
2026-05-05 03:06 -19.31893 146.79343 86 ft 6 kts 262°
2026-05-05 03:06 -19.31898 146.79336 87 ft 2 kts 252°
2026-05-05 03:07 -19.31900 146.79329 68 ft 1 kts 240°
2026-05-05 03:07 -19.31895 146.79326 99 ft 2 kts 233°
2026-05-05 03:07 -19.31879 146.79364 115 ft 12 kts 247°
2026-05-05 03:07 -19.31874 146.79350 67 ft 5 kts 256°
2026-05-05 03:08 -19.31869 146.79351 48 ft 2 kts 261°
2026-05-05 03:08 -19.31860 146.79360 42 ft 0 kts 263°
2026-05-05 03:10 -19.31858 146.79409 93 ft 12 kts 268°
2026-05-05 03:10 -19.31843 146.79234 130 ft 90 kts 279°
2026-05-05 03:10 -19.31704 146.78466 827 ft 107 kts 285°
2026-05-05 03:10 -19.31255 146.77710 1250 ft 139 kts 308°
2026-05-05 03:11 -19.30501 146.76994 1150 ft 150 kts 324°
2026-05-05 03:11 -19.29599 146.76394 998 ft 154 kts 331°
2026-05-05 03:11 -19.28687 146.75816 794 ft 152 kts 332°
2026-05-05 03:11 -19.27698 146.75611 565 ft 140 kts
2026-05-05 03:12 -19.26880 146.75942 414 ft 117 kts 31°
2026-05-05 03:12 -19.26249 146.76299 253 ft 85 kts 31°
2026-05-05 03:12 -19.25907 146.76454 132 ft 25 kts 33°
2026-05-05 03:12 -19.25802 146.76437 46 ft 10 kts 353°
2026-05-05 03:13 -19.25787 146.76425 37 ft 4 kts 304°
2026-05-05 03:13 -19.25746 146.76351 41 ft 19 kts 306°
2026-05-05 03:13 -19.25706 146.76193 54 ft 27 kts 274°
2026-05-05 03:13 -19.25681 146.76017 34 ft 11 kts 271°
2026-05-05 03:14 -19.25683 146.75966 24 ft 6 kts 269°
2026-05-05 03:14 -19.25696 146.75921 15 ft 9 kts 221°
2026-05-05 03:14 -19.25759 146.75916 15 ft 5 kts 168°
2026-05-05 03:14 -19.25796 146.75917 15 ft 6 kts 158°
2026-05-05 03:15 -19.25807 146.75953 15 ft 6 kts 96°
2026-05-05 03:15 -19.25808 146.75963 15 ft 0 kts 97°